Breckenridge, TX

12:27 AM CDT on June 24, 2017 (GMT -0500)
Stephens County

Weather History for KBKD - December, 2012

Change the Weather History Date:

Thursday, December 13, 2012

  Actual Average (KMWL) Record (KMWL)
Temperature  
Mean Temperature 54 °F -  
Max Temperature 66 °F 56 °F 73 °F (1996)
Min Temperature 41 °F 33 °F 19 °F (1997)
Degree Days  
Heating Degree Days 12    
Growing Degree Days 4 (Base 50)    
Moisture  
Dew Point 29 °F    
Average Humidity 39    
Maximum Humidity 55    
Minimum Humidity 27    
Precipitation  
Precipitation 0.00 in - - ()
Sea Level Pressure  
Sea Level Pressure 30.15 in    
Wind  
Wind Speed 11 mph (South)    
Max Wind Speed 17 mph    
Max Gust Speed 24 mph    
Visibility 10 miles    
Events      
Averages and records for this station are not official NWS values.
T = Trace of Precipitation, MM = Missing Value Source: NWS Daily Summary

Daily Weather History Graph

Daily Weather History Graph

Search for Another Location

Airport or City:

Trip Planner

Search our weather history database for the weather conditions in past years. The results will help you decide how hot, cold, wet, or windy it might be!

Date:

Astronomy

Dec. 13, 2012 Rise Set
Actual Time 7:29 AM CST 5:30 PM CST
Civil Twilight 7:02 AM CST 5:57 PM CST
Nautical Twilight 6:31 AM CST 6:28 PM CST
Astronomical Twilight 6:01 AM CST 6:58 PM CST
Moon 7:40 AM CST (12/13) 6:13 PM CST (12/13)
Length of Visible Light 10h 55m
Length of Day
10h 01m
New Moon, 0% of the Moon is Illuminated
Dec 13
New Moon
Dec 19
First Quarter
Dec 28
Full
Jan 4
Last Quarter
Jan 11
New

Hourly Weather History & Observations

Time (CST) Temp. Windchill Dew Point Humidity Pressure Visibility Wind Dir Wind Speed Gust Speed Precip Events Conditions
12:15 AM 46.4 °F 41.5 °F 21.2 °F 37% 30.18 in 10.0 mi South 10.4 mph - N/A   Clear
12:35 AM 46.4 °F 41.1 °F 21.2 °F 37% 30.18 in 10.0 mi South 11.5 mph - N/A   Clear
12:55 AM 46.4 °F 41.1 °F 21.2 °F 37% 30.18 in 10.0 mi South 11.5 mph 18.4 mph N/A   Clear
1:15 AM 46.4 °F 41.1 °F 21.2 °F 37% 30.17 in 10.0 mi South 11.5 mph 18.4 mph N/A   Clear
1:35 AM 44.6 °F 38.8 °F 21.2 °F 39% 30.17 in 10.0 mi South 11.5 mph 17.3 mph N/A   Clear
1:55 AM 46.4 °F 40.4 °F 21.2 °F 37% 30.17 in 10.0 mi South 13.8 mph 19.6 mph N/A   Clear
2:15 AM 46.4 °F 41.1 °F 21.2 °F 37% 30.17 in 10.0 mi South 11.5 mph 17.3 mph N/A   Clear
2:35 AM 46.4 °F 41.1 °F 21.2 °F 37% 30.17 in 10.0 mi South 11.5 mph 20.7 mph N/A   Clear
2:55 AM 46.4 °F 41.1 °F 21.2 °F 37% 30.17 in 10.0 mi South 11.5 mph 17.3 mph N/A   Clear
3:15 AM 44.6 °F 39.7 °F 21.2 °F 39% 30.17 in 10.0 mi South 9.2 mph 17.3 mph N/A   Clear
3:35 AM 44.6 °F 39.7 °F 21.2 °F 39% 30.17 in 10.0 mi South 9.2 mph - N/A   Clear
4:35 AM 42.8 °F 37.0 °F 21.2 °F 42% 30.16 in 10.0 mi SSE 10.4 mph - N/A   Clear
4:55 AM 41.0 °F 35.2 °F 21.2 °F 45% 30.16 in 10.0 mi SSE 9.2 mph - N/A   Clear
5:15 AM 41.0 °F 35.8 °F 21.2 °F 45% 30.16 in 10.0 mi SSE 8.1 mph - N/A   Clear
5:35 AM 42.8 °F 38.6 °F 21.2 °F 42% 30.16 in 10.0 mi South 6.9 mph - N/A   Clear
5:55 AM 42.8 °F 38.0 °F 21.2 °F 42% 30.17 in 10.0 mi SSE 8.1 mph - N/A   Clear
6:15 AM 42.8 °F 38.0 °F 21.2 °F 42% 30.17 in 10.0 mi South 8.1 mph - N/A   Clear
6:35 AM 42.8 °F 38.0 °F 21.2 °F 42% 30.17 in 10.0 mi South 8.1 mph - N/A   Clear
6:55 AM 42.8 °F 38.6 °F 21.2 °F 42% 30.18 in 10.0 mi South 6.9 mph - N/A   Clear
7:15 AM 42.8 °F 38.6 °F 21.2 °F 42% 30.18 in 10.0 mi South 6.9 mph - N/A   Clear
7:55 AM 42.8 °F 37.5 °F 21.2 °F 42% 30.19 in 10.0 mi South 9.2 mph - N/A   Clear
8:15 AM 42.8 °F - 21.2 °F 42% 30.20 in 10.0 mi North - - N/A   Clear
8:35 AM 44.6 °F 40.7 °F 21.2 °F 39% 30.20 in 10.0 mi South 6.9 mph - N/A   Clear
8:55 AM 46.4 °F 42.4 °F 21.2 °F 37% 30.21 in 10.0 mi South 8.1 mph - N/A   Clear
9:15 AM 50.0 °F - 23.0 °F 35% 30.21 in 10.0 mi South 8.1 mph - N/A   Clear
9:35 AM 51.8 °F - 23.0 °F 33% 30.22 in 10.0 mi SSW 11.5 mph 16.1 mph N/A   Clear
9:55 AM 51.8 °F - 23.0 °F 33% 30.22 in 10.0 mi South 12.7 mph - N/A   Clear
10:15 AM 55.4 °F - 24.8 °F 31% 30.23 in 10.0 mi SSW 15.0 mph 19.6 mph N/A   Clear
10:35 AM 55.4 °F - 24.8 °F 31% 30.23 in 10.0 mi SSW 11.5 mph 18.4 mph N/A   Clear
10:55 AM 59.0 °F - 26.6 °F 29% 30.23 in 10.0 mi SSW 12.7 mph - N/A   Clear
11:15 AM 59.0 °F - 26.6 °F 29% 30.22 in 10.0 mi SSW 16.1 mph 19.6 mph N/A   Clear
11:35 AM 60.8 °F - 28.4 °F 29% 30.21 in 10.0 mi SSW 11.5 mph 17.3 mph N/A   Clear
11:55 AM 62.6 °F - 28.4 °F 27% 30.20 in 10.0 mi South 12.7 mph 17.3 mph N/A   Clear
12:15 PM 62.6 °F - 28.4 °F 27% 30.18 in 10.0 mi South 13.8 mph 21.9 mph N/A   Clear
12:35 PM 64.4 °F - 30.2 °F 28% 30.17 in 10.0 mi SSW 13.8 mph 19.6 mph N/A   Clear
12:55 PM 64.4 °F - 30.2 °F 28% 30.16 in 10.0 mi SSW 10.4 mph 16.1 mph N/A   Clear
1:15 PM 64.4 °F - 30.2 °F 28% 30.15 in 10.0 mi SSW 11.5 mph 20.7 mph N/A   Clear
1:35 PM 64.4 °F - 32.0 °F 30% 30.13 in 10.0 mi South 12.7 mph 16.1 mph N/A   Clear
1:55 PM 66.2 °F - 32.0 °F 28% 30.12 in 10.0 mi South 10.4 mph - N/A   Clear
2:15 PM 66.2 °F - 32.0 °F 28% 30.12 in 10.0 mi SSE 13.8 mph 20.7 mph N/A   Clear
2:35 PM 66.2 °F - 32.0 °F 28% 30.12 in 10.0 mi South 11.5 mph 24.2 mph N/A   Clear
2:55 PM 66.2 °F - 32.0 °F 28% 30.11 in 10.0 mi SSW 17.3 mph - N/A   Clear
3:15 PM 66.2 °F - 33.8 °F 30% 30.11 in 10.0 mi South 16.1 mph 19.6 mph N/A   Clear
3:35 PM 66.2 °F - 33.8 °F 30% 30.11 in 10.0 mi South 13.8 mph - N/A   Clear
3:55 PM 66.2 °F - 33.8 °F 30% 30.10 in 10.0 mi South 15.0 mph 19.6 mph N/A   Clear
4:15 PM 66.2 °F - 33.8 °F 30% 30.10 in 10.0 mi South 15.0 mph 18.4 mph N/A   Clear
4:35 PM 64.4 °F - 35.6 °F 34% 30.10 in 10.0 mi SSE 12.7 mph - N/A   Clear
6:15 PM 60.8 °F - 37.4 °F 42% 30.09 in 10.0 mi SE 8.1 mph - N/A   Clear
7:15 PM 59.0 °F - 37.4 °F 45% 30.11 in 10.0 mi SE 9.2 mph - N/A   Mostly Cloudy
7:35 PM 60.8 °F - 39.2 °F 45% 30.11 in 10.0 mi SE 10.4 mph - N/A   Overcast
7:55 PM 60.8 °F - 41.0 °F 48% 30.11 in 10.0 mi SE 10.4 mph - N/A   Overcast
8:15 PM 60.8 °F - 41.0 °F 48% 30.11 in 10.0 mi SE 8.1 mph - N/A   Overcast
8:35 PM 60.8 °F - 41.0 °F 48% 30.10 in 10.0 mi SE 10.4 mph - N/A   Overcast
8:55 PM 60.8 °F - 41.0 °F 48% 30.10 in 10.0 mi SE 9.2 mph - N/A   Overcast
9:15 PM 59.0 °F - 41.0 °F 51% 30.10 in 10.0 mi SSE 9.2 mph - N/A   Overcast
9:35 PM 59.0 °F - 42.8 °F 55% 30.11 in 10.0 mi SSE 9.2 mph - N/A   Overcast
9:55 PM 60.8 °F - 44.6 °F 55% 30.10 in 10.0 mi SSE 9.2 mph - N/A   Overcast
10:15 PM 60.8 °F - 44.6 °F 55% 30.11 in 10.0 mi South 12.7 mph 16.1 mph N/A   Overcast
10:35 PM 60.8 °F - 44.6 °F 55% 30.11 in 10.0 mi SSE 8.1 mph 17.3 mph N/A   Overcast
10:55 PM 60.8 °F - 44.6 °F 55% 30.11 in 10.0 mi South 11.5 mph - N/A   Overcast
11:15 PM 60.8 °F - 44.6 °F 55% 30.11 in 10.0 mi South 13.8 mph 17.3 mph N/A   Overcast
11:35 PM 60.8 °F - 44.6 °F 55% 30.11 in 10.0 mi South 11.5 mph - N/A   Overcast